HULIANWANG DIGUI-18

导读

HULIANWANG DIGUI-18即中国互联网低轨卫星,于北京时间2025年2月11日在文昌航天发射场,由长征八号改运载火箭发射升空,是互联网低轨02组组网卫星之一,目前卫星处于在轨运行状态。该卫星属于低轨互联网星座,旨在构建全球覆盖的卫星通信网络,为地面提供泛在互联的网络接入服务,助力天地一体化信息网络建设。

Basic Information
目录编号:
62978
目录名称:
HULIANWANG DIGUI-18
国际标识:
2025-030H
轨道中心:
EARTH
卫星名称:
HULIANWANG DIGUI-18
卫星全名:
HULIANWANG DIGUI-18
卫星状态:
在轨 (已飞行577 天)
发射日期:
2025-02-11 UTC
国别 :
中国 (CN)
星等 :
--
This satellite is enrolled in the Space Conjunction Data Service (SCDS) and the current flight risk assessment level is: No High Risk
Orbit Information
数据来源 国际轨道数据 AOE轨道数据
星历时间 2026-09-11T14:10:37+0800
7小时前
查看轨道信息
2026-09-10T06:00:00+0800
1天前
查看轨道信息
半长轴 7527.446km 7527.447km
偏心率 0.0000474 0.0000359
轨道倾角 50.006° 50.006°
近地点辐角 23.441° 19.552°
升交点赤经 286.858° 291.666°
平近点角 336.649° 40.493°
近地点 1148.952km 1149.039km
远地点 1149.666km 1149.581km
周期 108.326分钟 108.326分钟
每日圈数 13.293254 13.293251
Detailed Information
使用方式:
暂无
2D Orbit Map
3D Orbit Map
Orbit Altitude Analysis Chart
Orbit Inclination Analysis Chart
Orbit Comprehensive Analysis Chart
View Comprehensive Chart
Miss Distance Evolution Trend with All Objects
Collision Probability Evolution Trend with All Objects